Regional Weather Roundup
Issued by NWS

Home | Current Version | Previous Version | Text Only | Print | Product List | Glossary Off
Versions: 1 2 3 4 5 6 7 8 9 10 11 12 13 14 15 16 17 18 19 20 21 22 23 24 25 26 27 28 29 30 31 32 33 34 35 36 37 38 39 40 41 42 43 44 45 46 47 48 49 50

000
ASUS45 KBOU 281907
RWRCO

WEATHER ROUNDUP FOR COLORADO
NATIONAL WEATHER SERVICE DENVER/BOULDER CO
1200 PM MST FRI NOV 28 2014

NOTE: "FAIR" INDICATES FEW OR NO CLOUDS BELOW 12000 FEET WITH NO
SIGNIFICANT WEATHER AND/OR OBSTRUCTIONS TO VISIBILITY.

COZ001>005-013-030-031-282000-
...NORTHWEST COLORADO...

CITY           SKY/WX    TMP DP  RH WIND       PRES   REMARKS
CRAIG          PTSUNNY   48  26  42 NE7       30.07F
HAYDEN         PTSUNNY   36  23  60 E8        30.08F
MEEKER         MOSUNNY   55  19  24 S12       30.09F
MOUNT WERNER   NOT AVBL
STEAMBOAT SPGS PTSUNNY   29  27  91 CALM      30.10F
WALDEN         PTSUNNY   43  14  31 SW23G30   30.05F
$$

COZ006>008-011-282000-
...WEST CENTRAL VALLEYS...

CITY           SKY/WX    TMP DP  RH WIND       PRES   REMARKS
GRAND JUNCTION MOSUNNY   44  27  51 NW5       30.14F
MONTROSE       MOSUNNY   53  21  28 CALM      30.15F
EAGLE          NOT AVBL
RIFLE          MOSUNNY   43  25  49 CALM      30.14F
DELTA          MOSUNNY   51  23  34 E3        30.14F
NUCLA          MOSUNNY   50  21  32 CALM      30.20F
$$

COZ017>023-064>068-282000-
...SOUTHWEST COLORADO...

CITY           SKY/WX    TMP DP  RH WIND       PRES   REMARKS
DURANGO        SUNNY     52  21  29 VRB3      30.23F
CORTEZ         SUNNY     55  20  25 CALM      30.20F
PAGOSA SPRINGS SUNNY     51  12  21 CALM      30.26F
TELLURIDE      SUNNY     51   6  15 CALM      30.28F
WOLF CREEK PAS SUNNY     34   3  27 MISG      30.37F
$$

COZ009-010-012-014-032>034-037-058>063-282000-
...CENTRAL COLORADO...

CITY           SKY/WX    TMP DP  RH WIND       PRES   REMARKS
ASPEN          SUNNY     46  21  37 NW5       30.14F
BUENA VISTA    SUNNY     58   0  10 W28G35    30.10F
COPPER MTN     SUNNY     37   1  22 W26G32    30.27F
BERTHOUD PASS  NOT AVBL
COTTONWOOD PAS SUNNY     50 -15   6 W31G49    30.13F
GUNNISON       SUNNY     28  18  64 CALM      30.29F
KREMMLING      MOSUNNY   52  10  19 SW7       30.11F
LEADVILLE      SUNNY     45   5  19 W10G18    30.19F
MONARCH PASS   SUNNY     32   0  25 W39G48    30.41F WCI  16
SALIDA         SUNNY     60   2   9 S16       30.17F
SUNLIGHT       SUNNY     41  23  48 SW6       30.26F
WILKERSON PASS MOSUNNY   45  -6  12 SW15G25   30.19F
$$

COZ069>075-282000-
...SAN LUIS VALLEY/SANGRE DE CRISTO MOUNTAINS...

CITY           SKY/WX    TMP DP  RH WIND       PRES   REMARKS
ALAMOSA        SUNNY     52  15  23 CALM      30.17F
LA VETA PASS   MOSUNNY   45   5  19 S21G35    30.16F
SAGUACHE       SUNNY     45  18  33 SE3       30.19F
$$

COZ035-036-038>040-282000-
...NORTHERN COLORADO FRONT RANGE...

CITY           SKY/WX    TMP DP  RH WIND       PRES   REMARKS
DENVER INTL AP CLOUDY    66  13  12 SE7       29.89F
DMNS CITY PARK   N/A     61  20  20 E3        29.87F
AURORA         PTSUNNY   65  15  14 VRB1      29.90F
FRONT RANGE AP NOT AVBL
ERIE MUNI ARPT PTSUNNY   66   8  10 E5        29.85F
BOULDER MUN AP PTSUNNY   63  16  16 N10       29.84F
CENTENNIAL     CLOUDY    66  10  11 E8        29.90F
BROOMFIELD     PTSUNNY   57  16  19 SE5       29.90F
FORT COLLINS   CLOUDY    61  21  21 W20G25    29.86F
LONGMONT       CLOUDY    66  13  12 S5        29.87F
$$

COZ041-046-047-076>085-087-088-282000-
...PIKES PEAK/PALMER DIVIDE AND SOUTHERN FOOTHILLS...

CITY           SKY/WX    TMP DP  RH WIND       PRES   REMARKS
COLO. SPRINGS  CLOUDY    60  10  14 SE8       29.96F
A. F. ACADEMY  CLOUDY    58  10  15 S10       29.96F
ELLICOTT       NOT AVBL
FALCON         NOT AVBL
FORT CARSON    CLOUDY    59  16  18 VRB5      29.94F
LIMON          PTSUNNY   69   6   8 W8        29.91F
MONUMENT HILL  CLOUDY    61   7  11 S3        29.97F
TRINIDAD       CLOUDY    63  24  22 N3        29.98F
$$

COZ042>045-048>051-090-091-282000-
...NORTHEAST COLORADO...

CITY           SKY/WX    TMP DP  RH WIND       PRES   REMARKS
GREELEY ARPT   CLOUDY    48  30  49 CALM      29.87F
AKRON          CLOUDY    58  21  24 W10       29.87F
BURLINGTON     PTSUNNY   76   8   7 W10       29.85F
WRAY           MOSUNNY   73  19  13 W7        29.83F
STERLING       CLOUDY    50  36  57 S7        29.82F
HOLYOKE        MOSUNNY   70  21  16 W17       29.81F
FORT MORGAN    CLOUDY    50  23  34 W9        29.88F
$$

COZ086-089-092>099-282000-
...SOUTHEAST COLORADO...

CITY           SKY/WX    TMP DP  RH WIND       PRES   REMARKS
PUEBLO         PTSUNNY   64  25  22 CALM      29.91F
LA JUNTA       CLOUDY    74  14  10 SW20G25   29.88F
LAMAR          PTSUNNY   69  19  15 W14       29.85F
SPRINGFIELD      N/A     76   9   7 W12       29.89F
$$


USA.gov is the U.S. government's official web portal to all federal, state and local government web resources and services.